Weather History for KTZR - July, 2013

Change the Weather History Date:

Tuesday, July 16, 2013

  Actual Average Record
Temperature  
Mean Temperature 78 °F -  
Max Temperature 89 °F 81 °F 93 °F (2012)
Min Temperature 68 °F 62 °F 53 °F (2014)
Cooling Degree Days 14    
Growing Degree Days 28 (Base 50)    
Moisture  
Dew Point 70 °F    
Average Humidity 86    
Maximum Humidity 100    
Minimum Humidity 36    
Precipitation  
Precipitation 0.03 in - - ()
Sea Level Pressure  
Sea Level Pressure 30.31 in    
Wind  
Wind Speed 1 mph (WNW)    
Max Wind Speed 7 mph    
Max Gust Speed -    
Visibility 9 miles    
Events Rain , Thunderstorm    
Averages and records for this station are not official NWS values.
T = Trace of Precipitation, MM = Missing Value Source: NWS Daily Summary

Daily Weather History Graph

Daily Weather History Graph

Search for Another Location

Airport or City:

Trip Planner

Search our weather history database for the weather conditions in past years. The results will help you decide how hot, cold, wet, or windy it might be!

Date:

Astronomy

Jul. 16, 2013 Rise Set
Actual Time 6:17 AM EDT 8:59 PM EDT
Civil Twilight 5:45 AM EDT 9:30 PM EDT
Nautical Twilight 5:06 AM EDT 10:10 PM EDT
Astronomical Twilight 4:21 AM EDT 10:55 PM EDT
Moon 2:39 PM EDT (7/16) 12:46 AM EDT (7/16)
Length of Visible Light 15h 44m
Length of Day
14h 41m
First Quarter, 56% of the Moon is Illuminated
Jul 16
First Quarter
Jul 22
Full
Jul 29
Last Quarter
Aug 6
New
Aug 14
First Quarter

Hourly Weather History & Observations

Time (EDT) Temp. Heat Index Dew Point Humidity Pressure Visibility Wind Dir Wind Speed Gust Speed Precip Events Conditions
12:15 AM 73.6 °F - 72.3 °F 96% 30.31 in 10.0 mi Calm Calm - N/A   Clear
12:35 AM 72.7 °F - 71.6 °F 96% 30.31 in 10.0 mi Calm Calm - N/A   Clear
12:55 AM 72.5 °F - 71.6 °F 97% 30.32 in 10.0 mi Calm Calm - N/A   Clear
1:15 AM 71.8 °F - 71.1 °F 98% 30.32 in 10.0 mi Calm Calm - N/A   Clear
1:35 AM 71.8 °F - 71.1 °F 98% 30.32 in 10.0 mi Calm Calm - N/A   Clear
1:55 AM 73.2 °F - 70.7 °F 92% 30.32 in 10.0 mi Calm Calm - N/A   Clear
2:15 AM 71.8 °F - 70.0 °F 94% 30.31 in 10.0 mi Calm Calm - N/A   Clear
2:35 AM 70.9 °F - 70.3 °F 98% 30.31 in 10.0 mi Calm Calm - N/A   Clear
2:55 AM 70.9 °F - 70.2 °F 98% 30.31 in 10.0 mi Calm Calm - N/A   Clear
3:15 AM 70.0 °F - 68.5 °F 95% 30.31 in 10.0 mi Calm Calm - N/A   Clear
3:35 AM 70.0 °F - 68.0 °F 93% 30.31 in 10.0 mi Calm Calm - N/A   Clear
3:55 AM 70.3 °F - 62.4 °F 76% 30.31 in 10.0 mi Calm Calm - N/A   Clear
4:15 AM 69.4 °F - 67.3 °F 93% 30.31 in 7.0 mi Calm Calm - N/A   Clear
4:35 AM 69.6 °F - 68.0 °F 95% 30.31 in 10.0 mi Calm Calm - N/A   Clear
4:55 AM 69.8 °F - 68.2 °F 95% 30.31 in 10.0 mi Calm Calm - N/A   Scattered Clouds
5:15 AM 69.4 °F - 67.8 °F 95% 30.32 in 7.0 mi Calm Calm - N/A   Scattered Clouds
5:35 AM 68.9 °F - 67.5 °F 95% 30.32 in 5.0 mi Calm Calm - N/A   Clear
5:55 AM 69.4 °F - 68.2 °F 96% 30.33 in 7.0 mi Calm Calm - N/A   Clear
6:15 AM 69.4 °F - 68.2 °F 96% 30.33 in 5.0 mi Calm Calm - N/A   Clear
6:35 AM 68.7 °F - 67.3 °F 95% 30.33 in 4.0 mi Calm Calm - N/A   Clear
6:55 AM 68.9 °F - 67.6 °F 96% 30.34 in 10.0 mi Calm Calm - N/A   Clear
7:15 AM 70.7 °F - 69.4 °F 96% 30.34 in 5.0 mi Calm Calm - N/A   Clear
7:20 AM 71.6 °F - 69.8 °F 94% 30.35 in 7.0 mi SW 4.6 mph - N/A   Clear
8:50 AM 80.6 °F 84.6 °F 71.6 °F 74% 30.36 in 10.0 mi Calm Calm - N/A   Clear
11:47 AM 87.8 °F 93.8 °F 71.6 °F 58% 30.35 in 10.0 mi WNW 4.6 mph - N/A   Scattered Clouds
12:47 PM 87.8 °F 93.8 °F 71.6 °F 58% 30.34 in 10.0 mi Calm Calm - N/A   Scattered Clouds
1:47 PM 87.8 °F 87.1 °F 59.0 °F 38% 30.33 in 10.0 mi SSW 3.5 mph - N/A   Mostly Cloudy
2:50 PM 89.6 °F 88.9 °F 59.0 °F 36% 30.31 in 10.0 mi Calm Calm - N/A   Overcast
3:50 PM 89.6 °F 89.5 °F 60.8 °F 38% 30.30 in 10.0 mi SW 4.6 mph - N/A   Mostly Cloudy
4:50 PM 89.6 °F 89.5 °F 60.8 °F 38% 30.29 in 10.0 mi SSW 4.6 mph - N/A   Scattered Clouds
5:50 PM 87.8 °F 87.6 °F 60.8 °F 40% 30.29 in 10.0 mi SW 4.6 mph - N/A   Scattered Clouds
6:55 PM 77.0 °F - 71.6 °F 83% 30.29 in 5.0 mi NNE 6.9 mph - N/A Rain , Thunderstorm Heavy Thunderstorms and Rain
7:10 PM 78.8 °F - 71.6 °F 78% 30.29 in 10.0 mi North 6.9 mph - N/A Rain Light Rain
7:35 PM 77.9 °F - 75.4 °F 92% 30.29 in 10.0 mi NW 4.6 mph - 0.03 in Rain Light Rain
7:55 PM 79.2 °F - 75.4 °F 88% 30.29 in 10.0 mi NW 5.8 mph - 0.03 in   Overcast
8:15 PM 79.2 °F - 75.9 °F 90% 30.29 in 10.0 mi NW 5.8 mph - N/A   Mostly Cloudy
8:35 PM 79.9 °F - 74.8 °F 85% 30.29 in 10.0 mi NW 4.6 mph - N/A   Overcast
8:55 PM 78.8 °F - 75.6 °F 90% 30.29 in 10.0 mi Calm Calm - N/A   Overcast
9:15 PM 78.8 °F - 75.4 °F 89% 30.29 in 10.0 mi Calm Calm - N/A   Scattered Clouds
9:35 PM 77.4 °F - 76.5 °F 97% 30.29 in 10.0 mi Calm Calm - N/A   Scattered Clouds
9:55 PM 77.0 °F - 75.4 °F 95% 30.30 in 10.0 mi Calm Calm - N/A   Clear
10:15 PM 76.8 °F - 75.6 °F 96% 30.30 in 10.0 mi Calm Calm - N/A   Clear
10:35 PM 75.7 °F - 75.4 °F 99% 30.30 in 10.0 mi Calm Calm - N/A   Clear
10:55 PM 75.2 °F - 75.2 °F 100% 30.30 in 10.0 mi Calm Calm - N/A   Clear
11:15 PM 75.6 °F - 75.4 °F 99% 30.30 in 10.0 mi Calm Calm - N/A   Clear
11:35 PM 75.2 °F - 75.0 °F 99% 30.31 in 10.0 mi Calm Calm - N/A   Clear
11:55 PM 76.5 °F - 74.3 °F 93% 30.31 in 10.0 mi Calm Calm - N/A   Scattered Clouds